Owosso, MI

7:58 AM EDT on April 21, 2018 (GMT -0400)
Owosso

Weather History for KRNP - February, 2014

Change the Weather History Date:

Sunday, February 23, 2014

  Actual Average (KFNT) Record (KFNT)
Temperature  
Mean Temperature 22 °F -  
Max Temperature 26 °F 35 °F 63 °F (1984)
Min Temperature 18 °F 22 °F -17 °F (2015)
Degree Days  
Heating Degree Days 43    
Moisture  
Dew Point 12 °F    
Average Humidity 65    
Maximum Humidity 75    
Minimum Humidity 54    
Precipitation  
Precipitation 0.00 in - - ()
Sea Level Pressure  
Sea Level Pressure 30.01 in    
Wind  
Wind Speed 13 mph (WSW)    
Max Wind Speed 21 mph    
Max Gust Speed 29 mph    
Visibility 10 miles    
Events      
Averages and records for this station are not official NWS values.
T = Trace of Precipitation, MM = Missing Value Source: NWS Daily Summary

Daily Weather History Graph

Daily Weather History Graph

Search for Another Location

Airport or City:

Astronomy

Feb. 23, 2014 Rise Set
Actual Time 7:22 AM EST 6:18 PM EST
Civil Twilight 6:53 AM EST 6:47 PM EST
Nautical Twilight 6:20 AM EST 7:20 PM EST
Astronomical Twilight 5:47 AM EST 7:52 PM EST
Moon 2:23 AM EST (2/23) 12:15 PM EST (2/23)
Length of Visible Light 11h 53m
Length of Day
10h 56m
Last Quarter, 39% of the Moon is Illuminated
Feb 23
Last Quarter
Mar 1
New
Mar 8
First Quarter
Mar 16
Full
Mar 23
Last Quarter

Hourly Weather History & Observations

Time (EST) Temp. Windchill Dew Point Humidity Pressure Visibility Wind Dir Wind Speed Gust Speed Precip Events Conditions
12:15 AM 25.7 °F 13.5 °F 14.0 °F 61% 29.95 in 10.0 mi WSW 15.0 mph 19.6 mph N/A   Clear
12:35 AM 25.5 °F 13.8 °F 14.4 °F 63% 29.96 in 10.0 mi WSW 13.8 mph 23.0 mph N/A   Clear
12:54 AM 25.2 °F 14.4 °F 14.0 °F 63% 29.96 in 10.0 mi West 11.5 mph - N/A   Clear
1:15 AM 24.6 °F 14.4 °F 14.0 °F 64% 29.96 in 10.0 mi WSW 10.4 mph - N/A   Clear
1:35 AM 24.1 °F 13.7 °F 13.8 °F 65% 29.96 in 10.0 mi WSW 10.4 mph 16.1 mph N/A   Clear
1:54 AM 23.7 °F 13.3 °F 13.6 °F 65% 29.96 in 10.0 mi WSW 10.4 mph - N/A   Clear
2:15 AM 23.4 °F 12.8 °F 13.6 °F 66% 29.96 in 10.0 mi WSW 10.4 mph 17.3 mph N/A   Clear
2:35 AM 23.2 °F 14.1 °F 13.6 °F 67% 29.96 in 10.0 mi WSW 8.1 mph 16.1 mph N/A   Clear
2:54 AM 22.8 °F 12.9 °F 13.5 °F 67% 29.96 in 10.0 mi WSW 9.2 mph - N/A   Clear
3:15 AM 22.3 °F 10.8 °F 13.1 °F 68% 29.96 in 10.0 mi WSW 11.5 mph - N/A   Clear
3:35 AM 22.1 °F 11.3 °F 13.1 °F 68% 29.96 in 10.0 mi WSW 10.4 mph - N/A   Clear
3:54 AM 21.9 °F 11.7 °F 13.3 °F 69% 29.96 in 10.0 mi WSW 9.2 mph - N/A   Clear
4:15 AM 21.6 °F 12.1 °F 13.1 °F 70% 29.97 in 10.0 mi WSW 8.1 mph - N/A   Clear
4:35 AM 21.2 °F 10.9 °F 12.9 °F 70% 29.98 in 10.0 mi WSW 9.2 mph - N/A   Clear
4:55 AM 21.2 °F 10.9 °F 12.7 °F 70% 29.98 in 10.0 mi WSW 9.2 mph - N/A   Clear
5:15 AM 20.8 °F 10.4 °F 12.6 °F 70% 29.97 in 10.0 mi West 9.2 mph - N/A   Clear
5:34 AM 20.3 °F 10.6 °F 12.2 °F 71% 29.99 in 10.0 mi WSW 8.1 mph - N/A   Clear
5:55 AM 20.1 °F 9.5 °F 12.0 °F 71% 30.00 in 10.0 mi WSW 9.2 mph - N/A   Clear
6:15 AM 19.4 °F 7.9 °F 12.0 °F 73% 30.00 in 10.0 mi WSW 10.4 mph - N/A   Clear
6:34 AM 19.4 °F 7.9 °F 12.0 °F 73% 30.00 in 10.0 mi WSW 10.4 mph - N/A   Clear
6:55 AM 19.4 °F 7.9 °F 11.8 °F 72% 30.01 in 10.0 mi WSW 10.4 mph - N/A   Clear
7:15 AM 18.9 °F 6.5 °F 11.7 °F 74% 30.01 in 10.0 mi WSW 11.5 mph - N/A   Clear
7:34 AM 18.3 °F 5.9 °F 11.3 °F 74% 30.01 in 10.0 mi WSW 11.5 mph - N/A   Clear
7:55 AM 18.1 °F 7.9 °F 11.3 °F 75% 30.02 in 10.0 mi WSW 8.1 mph - N/A   Clear
8:15 AM 18.3 °F 7.3 °F 11.3 °F 74% 30.03 in 10.0 mi WSW 9.2 mph - N/A   Clear
8:34 AM 18.3 °F 5.9 °F 11.3 °F 74% 30.03 in 10.0 mi WSW 11.5 mph - N/A   Clear
8:55 AM 18.7 °F 6.3 °F 11.7 °F 74% 30.04 in 10.0 mi WSW 11.5 mph 20.7 mph N/A   Clear
9:15 AM 19.4 °F 5.0 °F 11.7 °F 72% 30.04 in 10.0 mi WSW 16.1 mph 20.7 mph N/A   Clear
9:35 AM 19.9 °F 4.3 °F 11.8 °F 71% 30.04 in 10.0 mi WSW 19.6 mph 25.3 mph N/A   Clear
9:55 AM 20.3 °F 5.7 °F 11.5 °F 69% 30.04 in 10.0 mi WSW 17.3 mph 24.2 mph N/A   Clear
10:14 AM 20.5 °F 7.4 °F 12.0 °F 70% 30.04 in 10.0 mi WSW 13.8 mph 24.2 mph N/A   Clear
10:35 AM 21.2 °F 7.8 °F 12.0 °F 68% 30.04 in 10.0 mi West 15.0 mph 20.7 mph N/A   Clear
10:54 AM 21.7 °F 9.6 °F 12.2 °F 67% 30.04 in 10.0 mi West 12.7 mph - N/A   Clear
11:15 AM 22.3 °F 9.2 °F 12.2 °F 65% 30.04 in 10.0 mi WSW 15.0 mph 23.0 mph N/A   Clear
11:35 AM 23.4 °F 10.6 °F 12.7 °F 64% 30.04 in 10.0 mi WSW 15.0 mph 23.0 mph N/A   Clear
11:54 AM 23.4 °F 9.6 °F 12.4 °F 63% 30.04 in 10.0 mi West 17.3 mph 23.0 mph N/A   Clear
12:15 PM 23.7 °F 10.5 °F 12.4 °F 62% 30.04 in 10.0 mi WSW 16.1 mph 24.2 mph N/A   Scattered Clouds
12:35 PM 24.3 °F 12.2 °F 13.3 °F 63% 30.03 in 10.0 mi WSW 13.8 mph 25.3 mph N/A   Scattered Clouds
12:54 PM 24.4 °F 11.5 °F 12.7 °F 61% 30.03 in 10.0 mi WSW 16.1 mph 23.0 mph N/A   Clear
1:15 PM 24.8 °F 11.9 °F 12.0 °F 58% 30.02 in 10.0 mi WSW 16.1 mph 27.6 mph N/A   Clear
1:35 PM 25.3 °F 13.6 °F 12.4 °F 58% 30.02 in 10.0 mi WSW 13.8 mph 24.2 mph N/A   Clear
1:54 PM 25.5 °F 11.6 °F 12.2 °F 57% 30.01 in 10.0 mi West 19.6 mph 25.3 mph N/A   Clear
2:15 PM 25.9 °F 13.3 °F 12.6 °F 57% 30.01 in 10.0 mi WSW 16.1 mph 27.6 mph N/A   Clear
2:34 PM 26.2 °F 13.4 °F 12.9 °F 57% 30.01 in 10.0 mi WSW 17.3 mph 28.8 mph N/A   Clear
2:55 PM 26.2 °F 13.0 °F 12.6 °F 56% 30.01 in 10.0 mi WSW 18.4 mph 24.2 mph N/A   Clear
3:15 PM 25.7 °F 11.5 °F 11.8 °F 56% 30.00 in 10.0 mi WSW 20.7 mph 25.3 mph N/A   Clear
3:34 PM 26.6 °F 15.2 °F 12.2 °F 55% 30.01 in 10.0 mi WSW 13.8 mph 25.3 mph N/A   Clear
3:55 PM 26.6 °F 13.4 °F 12.0 °F 54% 30.01 in 10.0 mi WSW 18.4 mph 21.9 mph N/A   Clear
4:14 PM 26.6 °F 13.4 °F 12.0 °F 54% 30.00 in 10.0 mi West 18.4 mph 26.5 mph N/A   Clear
4:35 PM 25.7 °F 12.3 °F 10.9 °F 54% 30.01 in 10.0 mi WSW 18.4 mph 24.2 mph N/A   Clear
4:55 PM 25.3 °F 12.6 °F 10.6 °F 54% 30.00 in 10.0 mi WSW 16.1 mph 23.0 mph N/A   Clear
5:14 PM 24.8 °F 11.5 °F 10.4 °F 54% 30.00 in 10.0 mi WSW 17.3 mph 21.9 mph N/A   Clear
5:35 PM 23.9 °F 9.9 °F 10.8 °F 57% 30.01 in 10.0 mi WSW 18.4 mph 25.3 mph N/A   Clear
5:55 PM 23.2 °F 9.0 °F 10.8 °F 59% 30.01 in 10.0 mi WSW 18.4 mph 24.2 mph N/A   Clear
6:14 PM 22.5 °F 8.5 °F 10.0 °F 59% 30.01 in 10.0 mi WSW 17.3 mph 23.0 mph N/A   Clear
6:35 PM 21.6 °F 6.9 °F 9.9 °F 61% 30.01 in 10.0 mi WSW 18.4 mph 25.3 mph N/A   Clear
6:54 PM 21.0 °F 8.1 °F 9.9 °F 62% 30.02 in 10.0 mi WSW 13.8 mph 20.7 mph N/A   Clear
7:15 PM 20.7 °F 7.6 °F 10.0 °F 64% 30.02 in 10.0 mi WSW 13.8 mph 20.7 mph N/A   Clear
7:35 PM 20.3 °F 7.2 °F 10.2 °F 65% 30.02 in 10.0 mi WSW 13.8 mph 18.4 mph N/A   Clear
7:54 PM 20.3 °F 6.1 °F 10.4 °F 66% 30.02 in 10.0 mi WSW 16.1 mph 19.6 mph N/A   Clear
8:15 PM 19.9 °F 6.7 °F 10.4 °F 67% 30.02 in 10.0 mi WSW 13.8 mph 20.7 mph N/A   Clear
8:34 PM 19.8 °F 8.3 °F 10.4 °F 67% 30.03 in 10.0 mi WSW 10.4 mph - N/A   Clear
8:55 PM 19.2 °F 10.2 °F 9.5 °F 66% 30.03 in 10.0 mi SW 6.9 mph - N/A   Clear
9:14 PM 19.2 °F 9.3 °F 9.9 °F 67% 30.03 in 10.0 mi WSW 8.1 mph - N/A   Clear
9:35 PM 19.2 °F 8.4 °F 10.2 °F 68% 30.03 in 10.0 mi WSW 9.2 mph - N/A   Scattered Clouds
9:55 PM 19.4 °F 7.9 °F 10.4 °F 68% 30.03 in 10.0 mi WSW 10.4 mph - N/A   Mostly Cloudy
10:14 PM 20.1 °F 8.1 °F 11.1 °F 68% 30.03 in 10.0 mi WSW 11.5 mph - N/A   Overcast
10:35 PM 20.3 °F 7.2 °F 11.3 °F 68% 30.02 in 10.0 mi WSW 13.8 mph - N/A   Overcast
10:55 PM 20.3 °F 7.2 °F 11.1 °F 68% 30.02 in 10.0 mi WSW 13.8 mph - N/A   Mostly Cloudy
11:15 PM 20.3 °F 8.3 °F 11.1 °F 68% 30.02 in 10.0 mi WSW 11.5 mph - N/A   Mostly Cloudy
11:35 PM 20.1 °F 8.8 °F 10.9 °F 68% 30.01 in 10.0 mi WSW 10.4 mph - N/A   Mostly Cloudy
11:54 PM 20.1 °F 10.3 °F 11.3 °F 69% 30.02 in 10.0 mi West 8.1 mph - N/A   Mostly Cloudy